Starlink 11434

operational
NORAD ID: 62420 Int'l Des: 2024-249 Owner: SPXS Country: US Constellation: starlink
LEOCIRCULAR

Starlink 11434について

説明を読み込み中...

リアルタイム位置

3D地球を読み込み中...

次回通過

高度履歴

Altitude vs Time

uPlot chart will show altitude changes over time

軌道要素

1 62420U 24249M 25304.65200988 .00253897 00000-0 19190-2 0 9993
2 62420 42.9992 225.6886 0002557 206.7287 153.3449 15.70880455 49183
Epoch: Oct 31, 2025 • Age: 8 hours

現在のステータス

高度 354.0 km
速度 7.70 km/s
衛星直下点 16.38°N, 14.26°W
打ち上げ日 Dec 23, 2024
運用期間 0.8 years
タイプ internet

技術仕様

分類 Payload
質量 960.00 kg
乾燥質量 910.00 kg
総質量 960.00 kg
長さ 0.30 m
直径 4.10 m
スパン 29.00 m
形状 Box + pan
製造者 SPXS
バスタイプ Starlink V2MD
フェーズステータス In Orbit
所有者/国 SPXS/US

大規模コンステレーション

Loading constellations...